�������l�o���
Date,Time,MP-1(��Sv/h),MP-2(��Sv/h),MP-3(��Sv/h),MP-4(��Sv/h),MP-5(��Sv/h),MP-6(��Sv/h),MP-7(��Sv/h),MP-8(��Sv/h),����,����(m/s),���J
2023/03/12,00:00,0.578,0.846,0.508,1.073,0.747,0.326,0.589,0.559,�k��,5.3,��
2023/03/12,00:10,0.577,0.846,0.508,1.072,0.747,0.326,0.590,0.557,�k��,4.7,��
2023/03/12,00:20,0.577,0.846,0.508,1.070,0.747,0.327,0.588,0.557,�k��,4.3,��
2023/03/12,00:30,0.578,0.846,0.508,1.071,0.747,0.326,0.591,0.559,�k��,3.8,��
2023/03/12,00:40,0.578,0.847,0.507,1.071,0.748,0.326,0.590,0.559,�k��,3.2,��
2023/03/12,00:50,0.578,0.844,0.507,1.070,0.747,0.325,0.589,0.559,�k�k��,3.0,��
2023/03/12,01:00,0.577,0.848,0.508,1.071,0.748,0.327,0.589,0.558,�k��,3.6,��
2023/03/12,01:10,0.577,0.846,0.508,1.073,0.747,0.326,0.589,0.558,�k��,4.1,��
2023/03/12,01:20,0.578,0.846,0.506,1.070,0.746,0.327,0.592,0.559,�k��,4.1,��
2023/03/12,01:30,0.579,0.846,0.507,1.072,0.747,0.326,0.590,0.559,�k��,3.5,��
2023/03/12,01:40,0.578,0.846,0.507,1.073,0.747,0.327,0.589,0.558,�k��,4.1,��
2023/03/12,01:50,0.577,0.844,0.508,1.072,0.747,0.327,0.589,0.558,�k��,4.3,��
2023/03/12,02:00,0.575,0.847,0.508,1.073,0.748,0.326,0.590,0.559,�k��,4.5,��
2023/03/12,02:10,0.577,0.847,0.508,1.073,0.745,0.326,0.589,0.558,�k��,4.3,��
2023/03/12,02:20,0.577,0.845,0.508,1.072,0.746,0.327,0.589,0.560,�k��,3.8,��
2023/03/12,02:30,0.577,0.846,0.509,1.071,0.747,0.325,0.590,0.558,�k��,3.5,��
2023/03/12,02:40,0.576,0.843,0.508,1.070,0.747,0.326,0.588,0.559,�k�k��,3.2,��
2023/03/12,02:50,0.576,0.844,0.507,1.072,0.747,0.326,0.590,0.558,�k��,3.2,��
2023/03/12,03:00,0.575,0.847,0.507,1.071,0.746,0.326,0.589,0.558,�k��,3.4,��
2023/03/12,03:10,0.577,0.844,0.507,1.071,0.746,0.326,0.589,0.559,�k�k��,3.5,��
2023/03/12,03:20,0.577,0.846,0.507,1.071,0.745,0.326,0.588,0.560,�k��,3.6,��
2023/03/12,03:30,0.576,0.845,0.508,1.070,0.747,0.326,0.588,0.558,�k��,2.9,��
2023/03/12,03:40,0.578,0.845,0.507,1.070,0.747,0.326,0.589,0.557,�k�k��,3.2,��
2023/03/12,03:50,0.579,0.845,0.508,1.072,0.748,0.326,0.590,0.560,�k�k��,3.4,��
2023/03/12,04:00,0.577,0.844,0.508,1.071,0.748,0.326,0.590,0.558,�k�k��,4.0,��
2023/03/12,04:10,0.577,0.845,0.508,1.072,0.745,0.325,0.590,0.559,�k�k��,4.4,��
2023/03/12,04:20,0.577,0.846,0.506,1.073,0.745,0.325,0.589,0.559,�k�k��,4.4,��
2023/03/12,04:30,0.576,0.845,0.506,1.072,0.747,0.326,0.588,0.558,�k�k��,4.6,��
2023/03/12,04:40,0.580,0.844,0.509,1.070,0.745,0.327,0.589,0.560,�k�k��,4.7,��
2023/03/12,04:50,0.577,0.844,0.508,1.070,0.747,0.327,0.590,0.560,�k�k��,5.0,��
2023/03/12,05:00,0.576,0.846,0.507,1.072,0.748,0.327,0.590,0.558,�k�k��,4.9,��
2023/03/12,05:10,0.577,0.846,0.508,1.072,0.746,0.327,0.589,0.559,�k��,4.8,��
2023/03/12,05:20,0.578,0.845,0.508,1.070,0.746,0.327,0.589,0.559,�k�k��,5.1,��
2023/03/12,05:30,0.577,0.844,0.507,1.073,0.748,0.326,0.590,0.559,�k��,5.5,��
2023/03/12,05:40,0.578,0.846,0.506,1.071,0.746,0.326,0.590,0.559,�k��,4.9,��
2023/03/12,05:50,0.578,0.846,0.508,1.072,0.747,0.327,0.591,0.557,�k��,6.1,��
2023/03/12,06:00,0.575,0.842,0.507,1.071,0.747,0.327,0.591,0.558,�k��,6.6,��
2023/03/12,06:10,0.578,0.846,0.507,1.071,0.744,0.326,0.589,0.559,�k�k��,6.7,��
2023/03/12,06:20,0.579,0.846,0.507,1.071,0.746,0.326,0.590,0.560,�k��,6.3,��
2023/03/12,06:30,0.577,0.846,0.507,1.071,0.747,0.327,0.590,0.560,�k�k��,6.8,��
2023/03/12,06:40,0.578,0.846,0.508,1.072,0.745,0.326,0.590,0.558,�k�k��,6.7,��
2023/03/12,06:50,0.577,0.846,0.508,1.072,0.745,0.326,0.590,0.560,�k��,5.4,��
2023/03/12,07:00,0.578,0.846,0.506,1.071,0.747,0.327,0.590,0.559,�k��,5.8,��
2023/03/12,07:10,0.577,0.843,0.507,1.071,0.745,0.325,0.590,0.560,�k��,6.0,��
2023/03/12,07:20,0.577,0.845,0.508,1.072,0.745,0.327,0.589,0.559,�k��,4.7,��
2023/03/12,07:30,0.579,0.845,0.508,1.073,0.745,0.326,0.589,0.559,�k��,4.2,��
2023/03/12,07:40,0.579,0.848,0.509,1.071,0.748,0.326,0.590,0.559,�k��,3.6,��
2023/03/12,07:50,0.579,0.846,0.508,1.073,0.745,0.327,0.591,0.559,�k��,3.8,��
2023/03/12,08:00,0.577,0.847,0.509,1.070,0.747,0.327,0.589,0.558,�k��,3.7,��
2023/03/12,08:10,0.578,0.845,0.509,1.073,0.748,0.327,0.589,0.561,�k��,3.9,��
2023/03/12,08:20,0.578,0.849,0.509,1.071,0.749,0.327,0.589,0.559,�k�k��,4.6,��
2023/03/12,08:30,0.579,0.847,0.508,1.070,0.747,0.328,0.588,0.559,�k�k��,3.6,��
2023/03/12,08:40,0.578,0.847,0.509,1.073,0.747,0.329,0.589,0.559,�k�k��,2.6,��
2023/03/12,08:50,0.579,0.848,0.508,1.071,0.747,0.327,0.589,0.560,�k�k��,2.8,��
2023/03/12,09:00,0.578,0.847,0.508,1.071,0.748,0.327,0.588,0.560,�k�k��,2.9,��
2023/03/12,09:10,0.579,0.846,0.509,1.073,0.748,0.326,0.589,0.561,�k�k��,2.8,��
2023/03/12,09:20,0.580,0.845,0.508,1.074,0.749,0.327,0.588,0.559,�k�k��,2.0,��
2023/03/12,09:30,0.580,0.846,0.508,1.072,0.748,0.327,0.588,0.559,�k�k��,2.2,��
2023/03/12,09:40,0.579,0.845,0.509,1.073,0.749,0.327,0.588,0.558,�k,2.8,��
2023/03/12,09:50,0.580,0.845,0.508,1.070,0.747,0.326,0.587,0.558,�k,2.6,��
2023/03/12,10:00,0.578,0.844,0.508,1.074,0.747,0.327,0.587,0.558,�k,2.5,��
2023/03/12,10:10,0.580,0.843,0.508,1.070,0.748,0.329,0.587,0.557,�k�k��,2.6,��
2023/03/12,10:20,0.578,0.846,0.509,1.074,0.747,0.326,0.588,0.557,�k,2.5,��
2023/03/12,10:30,0.578,0.845,0.509,1.069,0.747,0.328,0.588,0.557,�k,2.3,��
2023/03/12,10:40,0.579,0.843,0.509,1.073,0.747,0.328,0.589,0.558,�k,2.0,��
2023/03/12,10:50,0.578,0.846,0.509,1.073,0.746,0.324,0.589,0.557,�k,2.0,��
2023/03/12,11:00,0.578,0.846,0.510,1.070,0.746,0.326,0.589,0.556,�k,2.3,��
2023/03/12,11:10,0.577,0.845,0.511,1.073,0.746,0.324,0.587,0.557,�k�k��,1.8,��
2023/03/12,11:20,0.577,0.845,0.509,1.072,0.744,0.326,0.586,0.557,�k,1.9,��
2023/03/12,11:30,0.578,0.843,0.509,1.071,0.745,0.326,0.587,0.557,�k,1.9,��
2023/03/12,11:40,0.578,0.844,0.509,1.072,0.745,0.326,0.589,0.557,�k,2.0,��
2023/03/12,11:50,0.579,0.845,0.509,1.073,0.746,0.327,0.590,0.557,�k,1.5,��
2023/03/12,12:00,0.578,0.845,0.509,1.070,0.746,0.327,0.588,0.557,�k�k��,1.4,��
2023/03/12,12:10,0.579,0.847,0.509,1.072,0.746,0.327,0.588,0.558,�k,1.1,��
2023/03/12,12:20,0.579,0.844,0.510,1.073,0.745,0.327,0.588,0.559,�k�k��,1.1,��
2023/03/12,12:30,0.578,0.846,0.509,1.073,0.745,0.326,0.588,0.558,�k��,1.4,��
2023/03/12,12:40,0.578,0.846,0.510,1.072,0.747,0.326,0.588,0.556,���k��,1.9,��
2023/03/12,12:50,0.579,0.848,0.509,1.073,0.746,0.325,0.587,0.558,���k��,1.8,��
2023/03/12,13:00,0.576,0.847,0.509,1.072,0.745,0.326,0.586,0.557,��,2.0,��
2023/03/12,13:10,0.577,0.846,0.508,1.074,0.747,0.325,0.588,0.558,���k��,1.4,��
2023/03/12,13:20,0.578,0.844,0.509,1.072,0.746,0.325,0.588,0.557,���k��,1.6,��
2023/03/12,13:30,0.576,0.846,0.509,1.072,0.745,0.326,0.588,0.558,���k��,1.1,��
2023/03/12,13:40,0.577,0.843,0.509,1.073,0.744,0.326,0.589,0.557,���k��,1.0,��
2023/03/12,13:50,0.580,0.847,0.508,1.072,0.745,0.326,0.589,0.559,��,1.4,��
2023/03/12,14:00,0.578,0.846,0.509,1.071,0.746,0.326,0.589,0.558,��,1.3,��
2023/03/12,14:10,0.579,0.845,0.511,1.074,0.744,0.326,0.589,0.558,���k��,0.9,��
2023/03/12,14:20,0.577,0.846,0.508,1.072,0.746,0.326,0.589,0.558,���쓌,1.4,��
2023/03/12,14:30,0.578,0.844,0.507,1.074,0.748,0.325,0.589,0.558,�쓌,1.4,��
2023/03/12,14:40,0.578,0.844,0.510,1.072,0.746,0.327,0.589,0.557,���쓌,1.8,��
2023/03/12,14:50,0.578,0.846,0.511,1.072,0.746,0.325,0.589,0.559,�쓌,2.2,��
2023/03/12,15:00,0.578,0.847,0.508,1.074,0.744,0.327,0.587,0.558,�쓌,2.0,��
2023/03/12,15:10,0.578,0.844,0.509,1.071,0.744,0.326,0.589,0.557,�쓌,1.4,��
2023/03/12,15:20,0.581,0.846,0.507,1.073,0.746,0.327,0.589,0.559,�쓌,2.0,��
2023/03/12,15:30,0.579,0.845,0.507,1.072,0.746,0.326,0.589,0.557,�쓌,1.4,��
2023/03/12,15:40,0.578,0.846,0.509,1.071,0.746,0.327,0.588,0.557,��쓌,2.0,��
2023/03/12,15:50,0.578,0.845,0.509,1.072,0.744,0.327,0.589,0.556,�쓌,2.5,��
2023/03/12,16:00,0.579,0.845,0.508,1.074,0.745,0.326,0.589,0.558,��쓌,3.5,��
2023/03/12,16:10,0.578,0.844,0.508,1.073,0.748,0.327,0.587,0.557,��쓌,4.4,��
2023/03/12,16:20,0.578,0.847,0.510,1.072,0.746,0.327,0.589,0.559,��쓌,4.9,��
2023/03/12,16:30,0.578,0.845,0.509,1.072,0.744,0.328,0.588,0.557,��쓌,4.2,��
2023/03/12,16:40,0.581,0.846,0.510,1.072,0.745,0.326,0.589,0.557,��쓌,4.2,��
2023/03/12,16:50,0.578,0.846,0.508,1.072,0.746,0.326,0.589,0.558,��쓌,3.7,��
2023/03/12,17:00,0.579,0.846,0.508,1.074,0.748,0.326,0.590,0.558,��쓌,3.4,��
2023/03/12,17:10,0.580,0.850,0.509,1.072,0.745,0.329,0.589,0.559,��쓌,5.1,��
2023/03/12,17:20,0.580,0.846,0.510,1.073,0.746,0.328,0.588,0.560,��쓌,5.9,��
2023/03/12,17:30,0.580,0.848,0.511,1.074,0.746,0.327,0.590,0.559,��쓌,6.9,��
2023/03/12,17:40,0.582,0.849,0.508,1.072,0.746,0.329,0.587,0.559,��쓌,6.5,��
2023/03/12,17:50,0.580,0.849,0.510,1.073,0.748,0.328,0.588,0.559,��쓌,6.7,��
2023/03/12,18:00,0.580,0.849,0.509,1.073,0.745,0.328,0.590,0.560,��쓌,5.8,��
2023/03/12,18:10,0.579,0.849,0.508,1.071,0.746,0.330,0.589,0.560,��,6.1,��
2023/03/12,18:20,0.582,0.849,0.508,1.073,0.746,0.329,0.590,0.560,��,6.5,��
2023/03/12,18:30,0.580,0.847,0.509,1.073,0.749,0.328,0.589,0.559,��쓌,6.5,��
2023/03/12,18:40,0.580,0.849,0.509,1.073,0.745,0.328,0.589,0.561,��쓌,6.0,��
2023/03/12,18:50,0.582,0.848,0.509,1.073,0.749,0.328,0.589,0.560,��,5.7,��
2023/03/12,19:00,0.581,0.848,0.511,1.073,0.749,0.328,0.590,0.561,��,6.1,��
2023/03/12,19:10,0.580,0.849,0.508,1.072,0.748,0.328,0.591,0.561,��쓌,6.1,��
2023/03/12,19:20,0.582,0.847,0.511,1.074,0.749,0.327,0.591,0.560,��쓌,6.9,��
2023/03/12,19:30,0.578,0.848,0.511,1.073,0.748,0.327,0.590,0.559,��,6.9,��
2023/03/12,19:40,0.580,0.847,0.511,1.072,0.749,0.328,0.590,0.559,��,7.3,��
2023/03/12,19:50,0.581,0.847,0.509,1.071,0.748,0.327,0.590,0.559,��쓌,7.4,��
2023/03/12,20:00,0.580,0.849,0.509,1.072,0.748,0.328,0.590,0.559,��,7.2,��
2023/03/12,20:10,0.579,0.847,0.509,1.072,0.749,0.328,0.590,0.559,��,7.8,��
2023/03/12,20:20,0.581,0.849,0.510,1.073,0.749,0.328,0.592,0.562,��,8.3,��
2023/03/12,20:30,0.581,0.849,0.509,1.071,0.746,0.328,0.591,0.560,��쓌,9.8,��
2023/03/12,20:40,0.579,0.848,0.510,1.073,0.748,0.328,0.589,0.559,��쓌,9.7,��
2023/03/12,20:50,0.580,0.849,0.509,1.074,0.748,0.329,0.590,0.560,��쓌,8.7,��
2023/03/12,21:00,0.580,0.849,0.510,1.073,0.747,0.327,0.592,0.560,��쓌,7.3,��
2023/03/12,21:10,0.579,0.848,0.510,1.072,0.746,0.328,0.591,0.559,��,6.4,��
2023/03/12,21:20,0.580,0.848,0.509,1.071,0.748,0.327,0.591,0.559,��,5.8,��
2023/03/12,21:30,0.579,0.848,0.509,1.073,0.746,0.327,0.592,0.560,��쓌,6.6,��
2023/03/12,21:40,0.580,0.849,0.509,1.072,0.747,0.326,0.591,0.560,��쓌,6.7,��
2023/03/12,21:50,0.580,0.847,0.511,1.072,0.747,0.329,0.592,0.560,��쓌,8.1,��
2023/03/12,22:00,0.581,0.849,0.511,1.072,0.749,0.328,0.591,0.560,��,7.2,��
2023/03/12,22:10,0.580,0.849,0.511,1.072,0.748,0.328,0.589,0.561,��,6.5,��
2023/03/12,22:20,0.580,0.847,0.510,1.072,0.747,0.328,0.589,0.561,��,6.9,��
2023/03/12,22:30,0.581,0.848,0.510,1.071,0.748,0.328,0.590,0.561,��,5.7,�L
2023/03/12,22:40,0.580,0.849,0.511,1.072,0.747,0.328,0.591,0.560,��,6.7,��
2023/03/12,22:50,0.581,0.846,0.509,1.073,0.749,0.328,0.591,0.560,��,7.0,��
2023/03/12,23:00,0.583,0.847,0.510,1.071,0.749,0.328,0.591,0.560,��,6.3,��
2023/03/12,23:10,0.582,0.849,0.510,1.073,0.748,0.328,0.591,0.560,��,6.0,�L
2023/03/12,23:20,0.581,0.847,0.509,1.073,0.749,0.327,0.590,0.559,��,6.3,��
2023/03/12,23:30,0.581,0.846,0.507,1.069,0.748,0.328,0.590,0.559,��,5.7,��
2023/03/12,23:40,0.581,0.849,0.511,1.071,0.746,0.328,0.591,0.560,��,5.9,��
2023/03/12,23:50,0.581,0.850,0.509,1.071,0.749,0.328,0.592,0.559,��,7.1,�L
